[[{"header":{"parameterUnit":"m.s-1","parameterCategory":1,"la1":30.2991,"la2":30.254,"lo1":-89.0895,"lo2":-89.0444,"dy":0.0017,"dx":0.0017,"nx":28,"ny":28,"refTime":"2025-06-15T09:00:00:Z","depth":0,"parameterNumber":2,"parameterNumberName":"U-component_of_WINDS"},"data":[0,0,0,0,0,0,0,0,0,0,0,0,0,0,0,0,0,0,0,0,0,0,0,0,0,0,0,0,0,0,0,0,0,0,0,0,0,0,0,0,0,0,0,0,0,0,0,0,0,0,0,0,0,0,0,0,0,0,2.8,2.8,0,2.7993,2.7993,2.7993,2.7899,2.7897,2.7894,2.7892,2.7886,2.7888,2.789,0,0,0,0,0,0,0,0,0,0,0,0,0,2.7933,2.7935,2.8,2.8,2.8,2.7993,2.7993,2.7993,2.79,2.7897,2.7894,2.7891,2.7885,2.7888,2.789,0,0,0,0,0,0,0,0,0,0,0,0,0,2.7948,2.7935,2.8,2.7953,2.7948,2.7993,2.7993,2.7993,2.79,2.7897,2.7893,2.789,2.7884,2.7887,2.789,2.798,0,0,2.79,2.7901,0,0,0,0,0,0,0,0,2.7947,2.795,2.796,2.7956,2.7951,2.7943,2.7967,2.7988,2.7901,2.7919,2.7892,2.7888,2.7908,2.7909,2.7915,2.798,2.798,2.79,2.7902,2.7903,2.7904,0,0,0,0,0,0,0,2.7946,2.795,2.7997,2.796,2.7955,2.7931,2.793,2.797,2.7933,2.7917,2.791,2.791,2.7905,2.7913,2.7914,2.798,2.79,2.7903,2.7905,2.7906,2.8113,2.8116,0,0,0,0,0,0,2.7952,2.795,2.7998,2.7997,2.794,2.7936,2.7934,2.7949,2.7933,2.7927,2.7913,2.7906,2.7909,2.7911,2.7914,2.8014,2.7903,2.7906,2.7908,2.8109,2.8113,2.8117,0,0,0,0,0,0,2.7951,2.7957,2.7998,2.7972,2.7975,2.794,2.7959,2.7951,2.7958,2.793,2.7923,2.7928,2.7906,2.791,2.7963,2.8012,2.7907,2.791,2.8105,2.811,2.8115,2.8217,0,0,0,0,0,0,2.7949,2.7957,2.7991,2.7973,2.7977,2.8048,2.7962,2.7954,2.7964,2.7954,2.7942,2.7936,2.7904,2.7959,2.7966,2.8015,2.7913,2.81,2.8107,2.8114,2.8209,2.8226,2.824,0,0,0,0,0,2.7947,2.8022,2.7993,2.8,2.8019,2.8051,2.8053,2.8014,2.7968,2.8002,2.7983,2.7937,2.8007,2.7965,2.7973,2.8023,2.8097,2.8105,2.8113,2.8203,2.8222,2.8239,0,0,0,0,0,0,2.8048,2.8018,2.7987,2.8058,2.8057,2.8035,2.8076,2.8037,2.805,2.804,2.7992,2.799,2.805,2.8042,2.7997,2.8106,2.8043,2.8053,2.8109,2.8127,2.8142,2.8141,2.7915,0,0,0,0,0,2.8078,2.8107,2.808,2.8145,2.8146,2.8112,2.8124,2.8094,2.8092,2.8091,2.8076,2.8076,2.8097,2.8113,2.8131,2.8209,2.8202,2.8247,2.8262,2.8274,2.8282,2.8319,2.8337,2.8144,2.8144,2.8144,0,0,2.8142,2.8129,2.815,2.8165,2.8161,2.819,2.8112,2.8148,2.8169,2.8097,2.8145,2.8134,2.8131,2.8195,2.8223,2.8191,2.8334,2.8285,2.8295,2.8296,2.8329,2.8347,2.8363,2.815,2.8149,2.8148,0,0,2.8271,2.8266,2.8317,2.8314,2.8308,2.8284,2.8297,2.828,2.8269,2.8317,2.8262,2.8287,2.8326,2.8324,2.8329,2.8454,2.8411,2.8462,2.854,2.8576,2.8591,2.8604,2.8645,2.866,2.8471,2.8471,2.8472,0,2.835,2.8392,2.8349,2.8386,2.8393,2.8328,2.8378,2.8378,2.838,2.8385,2.8349,2.8394,2.8387,2.8448,2.8479,2.8486,2.8497,2.8462,2.8592,2.8605,2.8616,2.8655,2.8671,2.8477,2.8477,2.8476,2.8476,0,2.8487,2.8517,2.856,2.856,2.8572,2.8616,2.8578,2.8596,2.8564,2.8544,2.8591,2.8581,2.8594,2.8607,2.8578,2.8664,2.8643,2.8601,2.8535,2.8641,2.8676,2.8691,2.8486,2.8484,2.8482,2.848,0,0,2.8679,2.8653,2.8669,2.8666,2.8655,2.8677,2.8717,2.8729,2.8743,2.8746,2.8777,2.881,2.8769,2.8774,2.8744,2.8776,2.8871,2.8729,2.8728,2.8752,2.896,2.899,2.9008,2.8844,2.8846,2.8849,2.8959,0,2.88,2.8866,2.8827,2.8899,2.8924,2.8862,2.8897,2.8893,2.8875,2.8893,2.8873,2.8896,2.8843,2.8845,2.8874,2.8854,2.8912,2.8846,2.8869,2.8871,2.8868,2.9026,2.9058,2.9163,2.8973,2.8976,2.8977,0,2.895,2.8956,2.903,2.9009,2.9018,2.905,2.9055,2.9075,2.9068,2.9053,2.9057,2.9018,2.9055,2.8993,2.9041,2.8997,2.9005,2.8996,2.9,2.8997,2.8928,2.9025,2.9196,2.921,2.8999,2.8998,2.8996,0,2.9076,2.9105,2.9151,2.9151,2.913,2.9153,2.9145,2.9135,2.9143,2.9149,2.9153,2.9164,2.9169,2.9178,2.9142,2.9101,2.9194,2.913,2.918,2.918,2.9199,2.9198,2.937,2.9211,2.9211,2.9211,2.9211,0,2.9213,2.926,2.9207,2.9235,2.9284,2.9239,2.9289,2.9275,2.9266,2.929,2.9239,2.9262,2.9215,2.9233,2.9206,2.9248,2.9252,2.9239,2.923,2.9241,2.9242,2.9243,2.9233,2.9215,2.9214,2.9213,2.9213,0,2.9362,2.9329,2.9374,2.935,2.9344,2.9381,2.936,2.9384,2.9362,2.9392,2.9397,2.9363,2.9381,2.9347,2.9362,2.9343,2.9401,2.9383,2.9402,2.9395,2.9445,2.944,2.9621,2.9641,2.9473,2.9475,2.9476,0,2.9449,2.9483,2.9461,2.9472,2.9466,2.9486,2.9493,2.9451,2.946,2.9454,2.9478,2.9492,2.9501,2.9533,2.9509,2.9519,2.9499,2.9562,2.95,2.9508,2.9494,2.9491,2.9492,2.9573,2.9575,2.9577,2.9578,0,2.9606,2.9587,2.9599,2.9605,2.9615,2.9618,2.9618,2.963,2.9584,2.9598,2.9615,2.9621,2.9635,2.9648,2.9652,2.9644,2.9603,2.9598,2.9609,2.9619,2.9627,2.9619,2.9432,2.9594,2.9592,2.9591,2.959,2.959,2.9724,2.9749,2.9736,2.975,2.9745,2.9745,2.9765,2.9745,2.9758,2.9764,2.9739,2.9761,2.9752,2.9752,2.9748,2.9764,2.9736,2.9754,2.9757,2.9761,2.9767,2.9628,2.9766,2.9765,2.9765,2.9764,2.9764,0,2.9874,2.9862,2.9876,2.9875,2.9886,2.9846,2.9843,2.9854,2.9874,2.9868,2.9877,2.9895,2.9907,2.9884,2.9892,2.9909,2.989,2.9913,2.9909,2.9907,2.9794,2.9782,2.9927,2.9927,2.9927,2.9927,2.9927,2.9927,2.9953,2.9992,2.9971,3.0007,2.9995,3.0015,3.0016,3.0015,3.0009,3.0031,3.004,3.0025,3.0011,3.0018,3.0027,3.0019,3.0023,3.0051,3.0037,2.9931,2.9915,2.99,2.9887,3.0053,3.0053,3.0147,3.0148,3.0149]},{"header":{"parameterUnit":"m.s-1","parameterCategory":1,"la1":30.2991,"la2":30.254,"lo1":-89.0895,"lo2":-89.0444,"dy":0.0017,"dx":0.0017,"nx":28,"ny":28,"refTime":"2025-06-15T09:00:00:Z","depth":0,"parameterNumber":3,"parameterNumberName":"V-component_of_WINDS"},"data":[0,0,0,0,0,0,0,0,0,0,0,0,0,0,0,0,0,0,0,0,0,0,0,0,0,0,0,0,0,0,0,0,0,0,0,0,0,0,0,0,0,0,0,0,0,0,0,0,0,0,0,0,0,0,0,0,0,0,4.7653,4.7654,0,4.7806,4.7808,4.781,4.7799,4.7797,4.7795,4.7792,4.7944,4.795,4.7956,0,0,0,0,0,0,0,0,0,0,0,0,0,4.7344,4.7349,4.7652,4.7654,4.7656,4.7806,4.7808,4.781,4.7799,4.7797,4.7794,4.7791,4.7942,4.7949,4.7957,0,0,0,0,0,0,0,0,0,0,0,0,0,4.7485,4.7351,4.7652,4.7669,4.7672,4.7806,4.7808,4.7811,4.78,4.7797,4.7793,4.779,4.794,4.7949,4.7958,4.8082,0,0,4.7986,4.799,0,0,0,0,0,0,0,0,4.7477,4.7497,4.7665,4.7668,4.7672,4.778,4.7755,4.7902,4.7801,4.7751,4.7792,4.7788,4.7892,4.7905,4.7941,4.8089,4.8096,4.7987,4.7992,4.7996,4.7999,0,0,0,0,0,0,0,4.7468,4.749,4.7713,4.7667,4.7672,4.7667,4.7684,4.7783,4.7839,4.7755,4.7755,4.7774,4.7893,4.7932,4.7944,4.8098,4.7986,4.7995,4.8,4.8004,4.8354,4.8357,0,0,0,0,0,0,4.7455,4.7482,4.7708,4.7718,4.7565,4.7675,4.7694,4.7749,4.7838,4.7848,4.7776,4.7773,4.7918,4.7934,4.795,4.81,4.7996,4.8005,4.801,4.835,4.8355,4.8359,0,0,0,0,0,0,4.7448,4.7475,4.7702,4.76,4.7628,4.7684,4.7746,4.7754,4.7792,4.7853,4.7863,4.7806,4.7916,4.7937,4.8049,4.8105,4.8009,4.8017,4.8346,4.8351,4.8357,4.8402,0,0,0,0,0,0,4.7439,4.7473,4.7522,4.7601,4.7634,4.7801,4.775,4.7759,4.7809,4.7806,4.7884,4.7894,4.7915,4.8036,4.8058,4.8116,4.8025,4.8341,4.8348,4.8355,4.8395,4.8408,4.8419,0,0,0,0,0,4.7428,4.7528,4.7525,4.7552,4.7697,4.7805,4.7823,4.7847,4.7814,4.7863,4.7901,4.7891,4.8095,4.8047,4.8073,4.8134,4.8337,4.8346,4.8354,4.839,4.8406,4.8419,0,0,0,0,0,0,4.7453,4.7539,4.7536,4.7665,4.7728,4.7803,4.7865,4.7863,4.7935,4.7929,4.7954,4.7972,4.8084,4.812,4.8065,4.8258,4.8212,4.8226,4.823,4.8245,4.8257,4.8245,4.8032,0,0,0,0,0,4.7474,4.7555,4.7625,4.7732,4.7764,4.7809,4.7857,4.787,4.7935,4.7961,4.8008,4.807,4.8148,4.8199,4.8274,4.8401,4.8416,4.8455,4.8467,4.8476,4.8488,4.8555,4.8572,4.8386,4.8386,4.8386,0,0,4.7517,4.7574,4.7623,4.7738,4.7788,4.787,4.7831,4.792,4.798,4.7974,4.8083,4.812,4.819,4.831,4.8365,4.8344,4.8542,4.8487,4.8494,4.85,4.8565,4.8583,4.8599,4.8392,4.8391,4.839,0,0,4.7636,4.7689,4.7783,4.7834,4.7911,4.794,4.7962,4.8038,4.8062,4.8173,4.8169,4.824,4.8374,4.8424,4.8467,4.8605,4.8597,4.8628,4.8689,4.8755,4.8769,4.8783,4.883,4.8846,4.864,4.864,4.864,0,4.768,4.7805,4.7831,4.792,4.7969,4.7969,4.8062,4.811,4.8207,4.824,4.8215,4.8383,4.843,4.8561,4.8594,4.863,4.8654,4.8619,4.8766,4.8779,4.8792,4.8837,4.8854,4.8643,4.8643,4.8642,4.8642,0,4.7853,4.794,4.8006,4.8101,4.8158,4.8249,4.8286,4.834,4.8348,4.8379,4.849,4.8547,4.8633,4.8665,4.8674,4.8796,4.878,4.8761,4.8714,4.8812,4.8855,4.8872,4.8648,4.8646,4.8646,4.8645,0,0,4.7993,4.81,4.8124,4.8166,4.825,4.8317,4.8406,4.8492,4.8537,4.8603,4.8678,4.8791,4.8773,4.8821,4.8835,4.8893,4.8995,4.8865,4.8867,4.8886,4.9132,4.9145,4.9165,4.8991,4.8995,4.8997,4.9125,0,4.812,4.8281,4.8306,4.8447,4.8526,4.8526,4.8604,4.8662,4.8694,4.8763,4.8797,4.8876,4.8847,4.8876,4.8934,4.8971,4.9045,4.8962,4.9058,4.9061,4.9039,4.9187,4.9202,4.932,4.9142,4.9145,4.9147,0,4.829,4.8362,4.8511,4.8583,4.8617,4.8687,4.8766,4.8834,4.8899,4.8918,4.8972,4.8978,4.9069,4.902,4.9143,4.9087,4.9127,4.9151,4.9156,4.9165,4.9109,4.9198,4.9358,4.9375,4.9174,4.9172,4.917,0,4.8374,4.8508,4.8614,4.8651,4.8738,4.8787,4.8825,4.8887,4.8937,4.9005,4.9037,4.9115,4.9157,4.9216,4.9243,4.9205,4.9364,4.9317,4.9379,4.9379,4.9412,4.9409,4.9579,4.9441,4.9441,4.944,4.944,0,4.8512,4.8603,4.8653,4.8718,4.8819,4.8846,4.8944,4.8981,4.9036,4.9107,4.9111,4.9176,4.9208,4.9278,4.9299,4.9396,4.9416,4.9431,4.9436,4.943,4.9428,4.9456,4.9448,4.9445,4.9444,4.9443,4.9442,0,4.8623,4.8661,4.8776,4.8849,4.887,4.8941,4.9002,4.9064,4.9095,4.9184,4.9206,4.9253,4.9336,4.9368,4.9468,4.9482,4.9594,4.9593,4.9572,4.9573,4.9633,4.9626,4.9825,4.9852,4.9698,4.9699,4.97,0,4.8708,4.8778,4.8859,4.8907,4.8947,4.9025,4.9075,4.9104,4.9156,4.9236,4.9287,4.937,4.9437,4.9567,4.9609,4.9685,4.9684,4.9749,4.9696,4.9688,4.9683,4.9678,4.9684,4.9758,4.976,4.9761,4.9762,0,4.8854,4.8869,4.8943,4.9023,4.9083,4.9147,4.9209,4.9248,4.9286,4.9343,4.9428,4.9481,4.9583,4.9664,4.9742,4.9778,4.9776,4.9779,4.9797,4.9791,4.9776,4.9783,4.9597,4.9774,4.9773,4.9772,4.9771,4.9771,4.8954,4.9015,4.9081,4.9163,4.9213,4.927,4.9332,4.937,4.9442,4.9529,4.9541,4.9631,4.9693,4.9798,4.9838,4.9907,4.989,4.9917,4.9923,4.9929,4.9932,4.9767,4.9922,4.9921,4.9921,4.9921,4.9921,0,4.9098,4.9141,4.9216,4.9303,4.9366,4.9361,4.9429,4.9481,4.9561,4.962,4.9686,4.9782,4.986,4.9909,4.9987,5.0033,5.0033,5.0052,5.0048,5.0056,4.9944,4.992,5.005,5.005,5.005,5.005,5.005,5.005,4.9181,4.9284,4.9307,4.9434,4.9475,4.9565,4.9604,4.9656,4.9703,4.9811,4.9876,4.9908,4.9962,5.0044,5.0114,5.0126,5.0154,5.0173,5.0184,5.0078,5.0064,5.0051,5.0029,5.018,5.018,5.029,5.0291,5.0292]}]]